[[{"header":{"parameterUnit":"m.s-1","parameterCategory":1,"la1":30.2991,"la2":30.254,"lo1":-89.0895,"lo2":-89.0444,"dy":0.0017,"dx":0.0017,"nx":28,"ny":28,"refTime":"2023-10-06T03:00:00:Z","depth":0,"parameterNumber":2,"parameterNumberName":"U-component_of_WINDS"},"data":[0,0,0,0,0,0,0,0,0,0,0,0,0,0,0,0,0,0,0,0,0,0,0,0,0,0,0,0,0,0,0,0,0,0,0,0,0,0,0,0,0,0,0,0,0,0,0,0,0,0,0,0,0,0,0,0,0,0,0.6561,0.6561,0,0.6575,0.6575,0.6575,0.6578,0.6578,0.6578,0.6578,0.6593,0.6594,0.6594,0,0,0,0,0,0,0,0,0,0,0,0,0,0.6538,0.6538,0.6561,0.6561,0.6561,0.6575,0.6575,0.6575,0.6578,0.6578,0.6578,0.6578,0.6593,0.6594,0.6595,0,0,0,0,0,0,0,0,0,0,0,0,0,0.6549,0.6538,0.6561,0.6564,0.6565,0.6575,0.6575,0.6575,0.6578,0.6578,0.6578,0.6578,0.6593,0.6594,0.6595,0.6603,0,0,0.6597,0.6597,0,0,0,0,0,0,0,0,0.6549,0.655,0.6563,0.6564,0.6564,0.6575,0.6573,0.6584,0.6578,0.6573,0.6578,0.6578,0.6587,0.6589,0.6592,0.6603,0.6604,0.6597,0.6597,0.6598,0.6598,0,0,0,0,0,0,0,0.6548,0.655,0.6566,0.6564,0.6564,0.6566,0.6567,0.6575,0.6581,0.6574,0.6574,0.6575,0.6588,0.6591,0.6592,0.6604,0.6597,0.6598,0.6598,0.6598,0.6624,0.6624,0,0,0,0,0,0,0.6546,0.6549,0.6566,0.6567,0.6556,0.6566,0.6568,0.6572,0.6581,0.6582,0.6576,0.6576,0.659,0.6591,0.6593,0.6603,0.6598,0.6599,0.6599,0.6624,0.6624,0.6625,0,0,0,0,0,0,0.6546,0.6548,0.6565,0.6558,0.656,0.6567,0.6571,0.6572,0.6575,0.6582,0.6584,0.6578,0.659,0.6592,0.66,0.6604,0.6599,0.66,0.6624,0.6624,0.6624,0.6624,0,0,0,0,0,0,0.6545,0.6547,0.655,0.6558,0.6561,0.6572,0.6571,0.6572,0.6576,0.6576,0.6585,0.6586,0.659,0.6599,0.6601,0.6605,0.66,0.6623,0.6624,0.6624,0.6623,0.6624,0.6624,0,0,0,0,0,0.6544,0.6549,0.655,0.6552,0.6564,0.6572,0.6574,0.6578,0.6577,0.658,0.6585,0.6586,0.6603,0.66,0.6602,0.6606,0.6623,0.6624,0.6624,0.6623,0.6624,0.6624,0,0,0,0,0,0,0.6542,0.655,0.6551,0.6559,0.6565,0.6573,0.6576,0.6578,0.6585,0.6584,0.6589,0.6591,0.66,0.6604,0.66,0.6615,0.6613,0.6614,0.6612,0.6612,0.6613,0.6611,0.6601,0,0,0,0,0,0.6542,0.6547,0.6555,0.6561,0.6564,0.657,0.6574,0.6576,0.6583,0.6585,0.659,0.6597,0.6604,0.6608,0.6615,0.6624,0.6627,0.6628,0.6629,0.6629,0.663,0.6636,0.6637,0.6626,0.6626,0.6626,0,0,0.6542,0.6548,0.6551,0.6561,0.6565,0.6572,0.6572,0.6578,0.6583,0.6586,0.6595,0.6599,0.6607,0.6616,0.662,0.6619,0.6633,0.663,0.663,0.663,0.6636,0.6637,0.6638,0.6627,0.6626,0.6626,0,0,0.6547,0.6551,0.6557,0.6562,0.657,0.6574,0.6575,0.6583,0.6586,0.6595,0.6598,0.6604,0.6616,0.6621,0.6626,0.6634,0.6635,0.6636,0.6638,0.6644,0.6645,0.6645,0.6649,0.665,0.6637,0.6637,0.6637,0,0.6547,0.6556,0.656,0.6567,0.6571,0.6574,0.6581,0.6586,0.6595,0.6598,0.6597,0.6613,0.6618,0.6629,0.6631,0.6635,0.6637,0.6634,0.6644,0.6645,0.6646,0.6649,0.665,0.6637,0.6637,0.6637,0.6637,0,0.6556,0.6562,0.6566,0.6575,0.658,0.6586,0.6592,0.6597,0.66,0.6604,0.6613,0.662,0.6629,0.6632,0.6634,0.6643,0.6643,0.6643,0.6641,0.6647,0.665,0.6651,0.6637,0.6637,0.6637,0.6637,0,0,0.6558,0.657,0.6571,0.6576,0.6585,0.659,0.6597,0.6605,0.661,0.6616,0.6623,0.6633,0.6634,0.6639,0.6643,0.6648,0.6654,0.6647,0.6648,0.6649,0.6665,0.6665,0.6666,0.6656,0.6656,0.6656,0.6665,0,0.6563,0.6576,0.658,0.659,0.6597,0.6601,0.6607,0.6614,0.6618,0.6625,0.663,0.6638,0.6638,0.6641,0.6646,0.6652,0.6658,0.6652,0.6662,0.6662,0.666,0.6668,0.6667,0.6675,0.6666,0.6666,0.6666,0,0.6571,0.6578,0.6589,0.6598,0.6601,0.6606,0.6615,0.6621,0.6629,0.6632,0.6638,0.6642,0.665,0.6649,0.6661,0.6657,0.6662,0.6665,0.6666,0.6667,0.6664,0.6669,0.6677,0.6679,0.6668,0.6668,0.6668,0,0.6572,0.6584,0.6592,0.6596,0.6607,0.661,0.6615,0.6623,0.6628,0.6636,0.664,0.6648,0.6653,0.666,0.6666,0.6665,0.6678,0.6677,0.6682,0.6681,0.6684,0.6683,0.6693,0.6687,0.6687,0.6687,0.6687,0,0.6578,0.6584,0.6593,0.6598,0.6606,0.6611,0.6619,0.6624,0.6632,0.6638,0.6642,0.6649,0.6656,0.6664,0.6669,0.6679,0.6681,0.6684,0.6685,0.6683,0.6683,0.6686,0.6686,0.6687,0.6687,0.6687,0.6687,0,0.6579,0.6585,0.6595,0.6604,0.6607,0.6612,0.6621,0.6626,0.6632,0.664,0.6642,0.6651,0.666,0.6667,0.6679,0.6683,0.6693,0.6694,0.669,0.6691,0.6695,0.6694,0.6707,0.6709,0.6701,0.6702,0.6702,0,0.6582,0.6588,0.6598,0.6602,0.6607,0.6615,0.662,0.6626,0.6632,0.6642,0.6646,0.6656,0.6664,0.6679,0.6686,0.6696,0.6697,0.6701,0.6699,0.6697,0.6698,0.6697,0.6698,0.6701,0.6701,0.6701,0.6701,0,0.6587,0.659,0.6597,0.6606,0.6612,0.6619,0.6626,0.663,0.6638,0.6644,0.6654,0.666,0.6672,0.6682,0.6693,0.6698,0.6702,0.6702,0.6704,0.6702,0.6699,0.6701,0.6691,0.6702,0.6702,0.6702,0.6702,0.6702,0.659,0.6595,0.6603,0.6611,0.6617,0.6624,0.663,0.6636,0.6644,0.6655,0.6658,0.6668,0.6677,0.6692,0.6698,0.6706,0.6706,0.6708,0.6709,0.6709,0.6709,0.6698,0.6708,0.6708,0.6708,0.6708,0.6708,0,0.6595,0.6601,0.6608,0.6618,0.6625,0.6627,0.6636,0.6641,0.665,0.6658,0.6666,0.6677,0.6687,0.6696,0.6706,0.6711,0.6713,0.6714,0.6713,0.6715,0.6709,0.6706,0.6712,0.6712,0.6712,0.6712,0.6712,0.6712,0.6598,0.6607,0.6611,0.6624,0.663,0.6639,0.6644,0.665,0.6657,0.6669,0.6677,0.6683,0.6692,0.6703,0.6712,0.6715,0.6719,0.6719,0.6722,0.6716,0.6715,0.6715,0.6712,0.672,0.672,0.6727,0.6727,0.6727]},{"header":{"parameterUnit":"m.s-1","parameterCategory":1,"la1":30.2991,"la2":30.254,"lo1":-89.0895,"lo2":-89.0444,"dy":0.0017,"dx":0.0017,"nx":28,"ny":28,"refTime":"2023-10-06T03:00:00:Z","depth":0,"parameterNumber":3,"parameterNumberName":"V-component_of_WINDS"},"data":[0,0,0,0,0,0,0,0,0,0,0,0,0,0,0,0,0,0,0,0,0,0,0,0,0,0,0,0,0,0,0,0,0,0,0,0,0,0,0,0,0,0,0,0,0,0,0,0,0,0,0,0,0,0,0,0,0,0,-7.1778,-7.1779,0,-7.1877,-7.1878,-7.1879,-7.1847,-7.1845,-7.1843,-7.1841,-7.1935,-7.1939,-7.1944,0,0,0,0,0,0,0,0,0,0,0,0,0,-7.1558,-7.1562,-7.1778,-7.1779,-7.1781,-7.1876,-7.1878,-7.1879,-7.1847,-7.1845,-7.1842,-7.184,-7.1934,-7.1939,-7.1944,0,0,0,0,0,0,0,0,0,0,0,0,0,-7.1655,-7.1564,-7.1778,-7.1777,-7.1778,-7.1876,-7.1878,-7.1879,-7.1848,-7.1845,-7.1842,-7.1839,-7.1932,-7.1938,-7.1945,-7.2049,0,0,-7.1965,-7.1968,0,0,0,0,0,0,0,0,-7.1649,-7.1663,-7.1776,-7.1777,-7.1778,-7.1847,-7.1835,-7.1936,-7.1849,-7.1821,-7.1841,-7.1837,-7.1908,-7.1916,-7.1941,-7.2053,-7.2057,-7.1966,-7.197,-7.1973,-7.1975,0,0,0,0,0,0,0,-7.1643,-7.1658,-7.1817,-7.1777,-7.1779,-7.1769,-7.178,-7.1854,-7.188,-7.1823,-7.1821,-7.1834,-7.1908,-7.1935,-7.1943,-7.2058,-7.1966,-7.1972,-7.1976,-7.1978,-7.2262,-7.2265,0,0,0,0,0,0,-7.1636,-7.1653,-7.1814,-7.182,-7.1705,-7.1776,-7.1787,-7.1828,-7.188,-7.1885,-7.1836,-7.1832,-7.1925,-7.1935,-7.1946,-7.2072,-7.1973,-7.1979,-7.1983,-7.2258,-7.2263,-7.2266,0,0,0,0,0,0,-7.1631,-7.1651,-7.181,-7.1736,-7.1756,-7.1783,-7.1828,-7.1831,-7.1858,-7.189,-7.1893,-7.1859,-7.1923,-7.1937,-7.2024,-7.2075,-7.1982,-7.1988,-7.2254,-7.226,-7.2265,-7.2325,0,0,0,0,0,0,-7.1625,-7.1649,-7.169,-7.1737,-7.176,-7.1888,-7.1832,-7.1835,-7.1871,-7.1866,-7.1912,-7.1917,-7.1922,-7.2015,-7.2031,-7.2083,-7.1993,-7.225,-7.2257,-7.2263,-7.2318,-7.2331,-7.2343,0,0,0,0,0,-7.1617,-7.1701,-7.1692,-7.1712,-7.1812,-7.1891,-7.1903,-7.1909,-7.1875,-7.1916,-7.1936,-7.1915,-7.2067,-7.2024,-7.2042,-7.2096,-7.2246,-7.2255,-7.2262,-7.2313,-7.2329,-7.2342,0,0,0,0,0,0,-7.1656,-7.1707,-7.1698,-7.18,-7.1842,-7.1885,-7.1936,-7.1925,-7.1976,-7.1969,-7.1971,-7.1982,-7.2072,-7.2093,-7.2044,-7.22,-7.2152,-7.2163,-7.2184,-7.2199,-7.2211,-7.2204,-7.1999,0,0,0,0,0,-7.1677,-7.1739,-7.1779,-7.1865,-7.1887,-7.1909,-7.1943,-7.1944,-7.1987,-7.2003,-7.203,-7.207,-7.2127,-7.2164,-7.2218,-7.2321,-7.2331,-7.2368,-7.238,-7.239,-7.24,-7.2457,-7.2474,-7.2292,-7.2292,-7.2292,0,0,-7.1719,-7.1755,-7.1793,-7.1874,-7.1906,-7.1969,-7.1923,-7.1991,-7.2038,-7.2013,-7.2098,-7.2119,-7.2164,-7.226,-7.2304,-7.228,-7.2453,-7.24,-7.2408,-7.2412,-7.2467,-7.2484,-7.25,-7.2298,-7.2297,-7.2296,0,0,-7.183,-7.1863,-7.1939,-7.1974,-7.2025,-7.2039,-7.2057,-7.2104,-7.2118,-7.2204,-7.2187,-7.2241,-7.2339,-7.2372,-7.2402,-7.2528,-7.2511,-7.2545,-7.2608,-7.2664,-7.2678,-7.2691,-7.2736,-7.2753,-7.2555,-7.2555,-7.2555,0,-7.1875,-7.1972,-7.1979,-7.205,-7.2085,-7.2069,-7.2146,-7.2178,-7.2243,-7.2267,-7.2241,-7.2365,-7.2393,-7.2498,-7.2529,-7.2553,-7.2574,-7.2539,-7.2676,-7.2689,-7.2701,-7.2744,-7.2761,-7.2559,-7.2558,-7.2558,-7.2558,0,-7.2026,-7.2093,-7.2148,-7.2215,-7.2257,-7.233,-7.2347,-7.2388,-7.2386,-7.2403,-7.2491,-7.2526,-7.2587,-7.2612,-7.2609,-7.2717,-7.2701,-7.2675,-7.2626,-7.2722,-7.2763,-7.2779,-7.2564,-7.2563,-7.2562,-7.2561,0,0,-7.2161,-7.2234,-7.2254,-7.2285,-7.2341,-7.2392,-7.2464,-7.2527,-7.2563,-7.2608,-7.2669,-7.2753,-7.2731,-7.2765,-7.2765,-7.2815,-7.2913,-7.2783,-7.2784,-7.2806,-7.3034,-7.3054,-7.3073,-7.2903,-7.2906,-7.2908,-7.3031,0,-7.2277,-7.2407,-7.2417,-7.2533,-7.2595,-7.2582,-7.2645,-7.2685,-7.2703,-7.2757,-7.2776,-7.2836,-7.2801,-7.2822,-7.287,-7.2891,-7.2959,-7.2882,-7.2958,-7.296,-7.2947,-7.3094,-7.3114,-7.3228,-7.3047,-7.3049,-7.3051,0,-7.2428,-7.2483,-7.2606,-7.2656,-7.2682,-7.2739,-7.2798,-7.2851,-7.2896,-7.2906,-7.2945,-7.294,-7.3013,-7.2962,-7.3063,-7.3011,-7.3042,-7.3057,-7.3062,-7.3069,-7.3012,-7.3105,-7.3264,-7.3281,-7.3076,-7.3074,-7.3073,0,-7.2516,-7.2619,-7.2707,-7.2734,-7.2793,-7.2834,-7.286,-7.2903,-7.2941,-7.2992,-7.3017,-7.3075,-7.3106,-7.3151,-7.3161,-7.3123,-7.3262,-7.3212,-7.3271,-7.3271,-7.3301,-7.3299,-7.3467,-7.3321,-7.3321,-7.332,-7.332,0,-7.2644,-7.272,-7.2748,-7.2802,-7.2887,-7.2897,-7.298,-7.3004,-7.3043,-7.31,-7.3091,-7.3144,-7.3155,-7.321,-7.3218,-7.3301,-7.3315,-7.3324,-7.3325,-7.3325,-7.3324,-7.3346,-7.3338,-7.3325,-7.3324,-7.3323,-7.3322,0,-7.2755,-7.2777,-7.2872,-7.2922,-7.2937,-7.2997,-7.3039,-7.3091,-7.3108,-7.3181,-7.3199,-7.3226,-7.3291,-7.3306,-7.3382,-7.3388,-7.3486,-7.3479,-7.3472,-7.3471,-7.353,-7.3525,-7.3719,-7.3745,-7.3581,-7.3583,-7.3584,0,-7.2836,-7.2895,-7.2952,-7.2992,-7.3021,-7.3084,-7.3123,-7.3135,-7.3177,-7.3235,-7.3279,-7.3344,-7.3396,-7.3501,-7.3526,-7.3585,-7.3579,-7.3644,-7.3588,-7.3587,-7.3581,-7.3578,-7.3584,-7.3654,-7.3656,-7.3657,-7.3658,0,-7.2976,-7.2985,-7.3043,-7.3107,-7.3155,-7.3205,-7.3252,-7.3284,-7.3303,-7.3349,-7.3418,-7.3459,-7.3539,-7.3603,-7.3663,-7.3687,-7.3676,-7.3676,-7.3693,-7.3693,-7.3687,-7.3692,-7.3501,-7.3671,-7.367,-7.3669,-7.3668,-7.3668,-7.3075,-7.3127,-7.3177,-7.3243,-7.3281,-7.3326,-7.3378,-7.3403,-7.3461,-7.3529,-7.3532,-7.3607,-7.3652,-7.3731,-7.376,-7.3817,-7.3797,-7.3822,-7.3828,-7.3834,-7.384,-7.3678,-7.3828,-7.3827,-7.3827,-7.3827,-7.3827,0,-7.3215,-7.3247,-7.3308,-7.3377,-7.3429,-7.3417,-7.3469,-7.3513,-7.3579,-7.3623,-7.3676,-7.3755,-7.3818,-7.3849,-7.3911,-7.3951,-7.3948,-7.3967,-7.3964,-7.397,-7.3853,-7.3833,-7.3969,-7.3969,-7.3969,-7.3969,-7.3969,-7.3969,-7.3294,-7.3383,-7.3398,-7.3506,-7.3536,-7.3612,-7.3643,-7.3684,-7.372,-7.3809,-7.3863,-7.3884,-7.3923,-7.3988,-7.4045,-7.4052,-7.4076,-7.4098,-7.4103,-7.3993,-7.3978,-7.3964,-7.3945,-7.4103,-7.4103,-7.4215,-7.4216,-7.4217]}]]